SENTINEL-3A

Last updated on Thu Oct 30 2025 00:02:31 GMT+0000 (Coordinated Universal Time)

1 41335U 16011A 25302.48921012 .00000186 00000+0 94776-4 0 9995 2 41335 98.6260 8.1488 0001192 95.9000 264.2316 14.26735169505169
UTC large
Height (km)
Speed (km/s)
/
Latitude / Longitude
Inclination (degrees)
Orbital Period (minutes)
Azimuth
Elevation
Range (km)
Doppler Factor

Next 0 passes for location: London (51.5072 / 0.1276)

Sorry there are no passes over London.